Regional Weather Roundup
Issued by NWS

Home | Current Version | Previous Version | Graphics & Text | Print | Product List | Glossary On
Versions: 1 2 3 4 5 6 7 8 9 10 11 12 13 14 15 16 17 18 19 20 21 22 23 24 25 26 27 28 29 30 31 32 33 34 35 36 37 38 39 40 41 42 43 44 45 46 47 48 49 50
000
ASUS43 KFSD 232002
RWRSD

WEATHER ROUNDUP FOR SOUTH DAKOTA
NATIONAL WEATHER SERVICE SIOUX FALLS SD
300 PM CDT TUE SEP 23 2014

NOTE: "FAIR" INDICATES FEW OR NO CLOUDS BELOW 12,000 FEET WITH NO
SIGNIFICANT WEATHER AND/OR OBSTRUCTIONS TO VISIBILITY.


SDZ001>005-009-010-012>017-232100-
NORTHWEST AND NORTH CENTRAL SOUTH DAKOTA

CITY           SKY/WX    TMP DP  RH WIND       PRES   REMARKS
FAITH            N/A     71  57  61 SE5       29.90S
MOBRIDGE       CLOUDY    64  57  78 SE14G23   29.91S
$$

SDZ012>016-024>037-041>051-057-063-072>074-232100-
SOUTHWEST AND SOUTH CENTRAL SOUTH DAKOTA

CITY           SKY/WX    TMP DP  RH WIND       PRES   REMARKS
RAPID CTY ARPT PTSUNNY   79  53  40 N5        29.93S
PIERRE         CLOUDY    67  57  70 SE17      29.89F
CUSTER         PTSUNNY   66  54  65 CALM      30.06S
ELLSWORTH AFB  CLOUDY    82  52  34 N2        29.93S
PHILIP         SUNNY     76  57  51 S6        29.87F
PINE RIDGE     PTSUNNY   78  52  40 W10       29.95S
WINNER         FAIR      73  58  59 S14G22    29.90F
$$

SDZ004>011-016>023-039-040-232100-
NORTHEAST SOUTH DAKOTA

CITY           SKY/WX    TMP DP  RH WIND       PRES   REMARKS
ABERDEEN       LGT RAIN  58  56  93 SE24G33   30.01F FOG
WATERTOWN      LGT RAIN  58  55  90 SE12      30.05F
SISSETON         N/A     62  54  74 S16G24    30.05F
$$

SDZ017-020-022-023-036>040-048>070-232100-
SOUTHEAST SOUTH DAKOTA

CITY           SKY/WX    TMP DP  RH WIND       PRES   REMARKS
SIOUX FALLS    LGT RAIN  59  56  89 SE16      30.07F
HURON          CLOUDY    59  55  87 SE14G24   30.00F
CHAMBERLAIN    CLOUDY    63  57  79 SE15      29.94S
MITCHELL       CLOUDY    60  56  86 SE20G28   30.01F
YANKTON        CLOUDY    61  57  88 SE12      30.03F
$$

ABBREVIATIONS USED IN REMARKS
   TC - TEMPERATURE IN CELSIUS
  WCI - WIND CHILL INDEX
   HX - HEAT INDEX
  VSB - VISIBILITY



USA.gov is the U.S. government's official web portal to all federal, state and local government web resources and services.